Location: Okie-Tex Star Party
(36.8978°N, 102.9520°W)
Time: 23:16:11
(UTC-05:00)

Daily predictions for brighter satellites

Satellite Brightness Start Highest point End
(mag) Time Altitude Azimuth Time Altitude Azimuth Time Altitude Azimuth
COSMOS 2455 3.0 21:21:51 10° NNW 21:27:52 78° WSW 21:33:51 10° SSE
Helios 1B rocket 3.0 21:25:31 10° NNE 21:29:22 37° E 21:33:13 10° SSE
NOSS 2-2 (E) 4.4 21:30:20 10° SW 21:34:14 53° NW 21:38:40 10° NNE
Cosmos 1025 Rocket 4.3 21:36:59 10° SE 21:40:13 21° E 21:43:28 10° NE
Cosmos 1544 Rocket 4.0 21:37:13 10° NNW 21:41:31 65° W 21:45:47 10° S
Cosmos 2369 Rocket 4.4 21:38:17 10° NW 21:42:43 24° WSW 21:47:09 10° SSW
Spot 1 4.4 21:39:56 10° SSE 21:44:19 51° ENE 21:48:29 10° N
Cosmos 1943 Rocket 3.3 21:40:58 10° NW 21:46:14 43° WSW 21:51:25 10° S
CZ-3A R/B 2.2 21:40:54 10° SSW 21:46:52 30° SE 21:49:15 10° ENE
Cosmos 405 Rocket 2.6 21:46:00 10° S 21:49:43 82° E 21:53:34 10° N
Resurs 1-3 4.5 21:46:09 10° S 21:50:23 50° W 21:54:40 10° NNW
Cosmos 2074 Rocket 4.1 21:44:27 10° N 21:50:37 59° E 21:56:48 10° SSE
Aureole 1 Rocket 2.2 21:47:31 10° S 21:50:53 59° ESE 21:53:52 10° NNE
Cosmos 2184 Rocket 4.1 21:47:42 10° N 21:53:59 61° E 22:00:10 10° SSE
Tiangong 2 2.2 21:52:41 10° W 21:55:44 45° NNW 21:58:48 10° ENE
Cosmos 1441 Rocket 3.3 21:54:53 10° S 21:58:29 50° E 22:02:07 10° NNE
Meteor 1-19 Rocket 4.3 21:55:32 10° S 22:01:22 88° WNW 22:07:08 10° N
Resurs 01 Rocket 3.4 22:00:26 10° SSW 22:04:21 30° W 22:08:16 10° NW
Meteor 1-23 Rocket 4.4 21:59:49 10° SSE 22:05:11 52° E 22:10:36 10° NNE
ERS-1 Rocket 3.6 22:01:27 14° SE 22:05:19 40° ENE 22:09:59 10° N
Cosmos 1455 Rocket 4.4 22:02:19 10° NNW 22:06:23 39° W 22:10:23 10° SSW
Meteor 1-29 3.0 22:06:12 10° N 22:09:34 80° WNW 22:12:54 10° SSW
SPOT 5 4.2 22:09:29 15° ESE 22:11:33 20° ENE 22:14:45 10° NNE
CENTAUR R/B 3.4 22:09:07 10° NW 22:17:07 68° WSW 22:24:52 13° SSE
Nadezhda 1 Rocket 4.0 22:13:55 10° S 22:20:16 85° E 22:26:42 10° N
CZ-4B DEB 3.3 22:20:52 15° S 22:23:11 50° W 22:26:06 10° NNW
COSMOS 2406 4.5 22:18:02 10° SW 22:23:29 44° WNW 22:28:56 10° N
ASTRO E2 4.1 22:20:25 10° WSW 22:23:37 23° SSW 22:24:51 20° SSE
Cosmos 1743 4.0 22:22:09 10° NNW 22:25:48 39° W 22:29:27 10° SSW
Cosmos 2082 Rocket 3.1 22:23:35 21° SE 22:25:52 27° ESE 22:30:32 10° NE
Meteor 1-15 Rocket 4.4 22:20:48 10° N 22:26:16 55° ENE 22:29:49 22° SSE
MOS 1-B Rocket 4.2 22:26:27 21° SE 22:30:15 55° ENE 22:36:27 10° N
ISS -1.2 22:28:03 10° W 22:30:48 24° NNW 22:33:34 10° NNE
CRYOSAT 2 4.3 22:28:05 16° S 22:31:57 84° E 22:36:49 10° N
Cosmos 1238 Rocket 4.2 22:27:22 10° S 22:34:07 80° W 22:40:40 10° N
Cosmos 2154 Rocket 4.0 22:31:47 10° N 22:38:08 73° E 22:42:32 21° SSE
ASTEX 1 3.5 22:34:37 15° S 22:38:43 77° W 22:43:38 10° N
OAO 2 Rocket 3.2 22:36:44 10° W 22:41:38 68° S 22:44:04 30° ESE
H-2A R/B 3.0 22:40:27 24° ESE 22:42:11 30° ENE 22:46:31 10° N
YAOGAN 6 3.3 22:41:01 20° SSW 22:43:06 48° W 22:46:30 10° NNW
Cosmos 1624 Rocket 4.1 22:38:07 10° NNW 22:43:23 66° ENE 22:45:57 30° SE
Cosmos 1939 Rocket 4.4 22:40:20 10° SSW 22:43:45 30° W 22:47:11 10° NW
Cosmos 2228 4.0 22:41:53 10° NNE 22:45:39 30° ENE 22:46:19 28° E
Cosmos 1666 4.3 22:44:53 10° NNW 22:48:12 30° W 22:51:14 12° SSW
Cosmos 921 Rocket 3.6 22:43:57 10° N 22:48:12 42° ENE 22:49:22 35° ESE
Cosmos 2369 4.3 22:42:48 10° N 22:48:17 44° ENE 22:50:41 29° ESE
Cosmos 1697 Rocket 4.2 22:44:21 10° N 22:48:44 23° ENE 22:50:57 18° E
Cosmos 967 Rocket 4.5 22:45:16 10° SSW 22:51:31 83° WNW 22:57:50 10° NNE
SL-08 RB Rocket 4.0 22:50:33 36° ESE 22:51:51 47° ENE 22:56:08 10° N
Cosmos 1892 Rocket 3.5 22:52:30 32° S 22:54:30 76° E 22:58:56 10° N
Cosmos 1656 4.5 22:51:14 10° N 22:56:13 35° ENE 22:58:04 28° E
Cosmos 1437 Rocket 2.8 22:55:45 10° NNW 22:59:36 74° W 23:00:45 43° S
Cosmos 2056 Rocket 3.4 22:57:31 10° NNW 23:02:42 88° WSW 23:04:39 39° SSE
Cosmos 1833 Rocket 2.8 23:00:37 33° SSE 23:02:53 53° ESE 23:08:22 10° NNE
PSLV R/B 3.4 23:02:41 10° WNW 23:05:22 60° W 23:05:22 60° W
MetOp-A 4.3 23:04:46 29° S 23:07:33 68° WSW 23:12:54 10° NNW
Cosmos 1606 Rocket 3.7 23:04:41 10° NNW 23:08:58 67° W 23:10:24 40° SSW
Timation 2 Rocket 4.4 23:08:52 37° SE 23:10:06 41° ESE 23:15:51 10° NE
Cosmos 2341 Rocket 4.0 23:04:41 10° N 23:11:04 85° W 23:14:23 31° S
Cosmos 1066 Rocket 4.1 23:16:09 44° SSE 23:17:52 69° E 23:23:27 10° NNE
COSMOS 2487 2.9 23:17:34 48° WSW 23:18:12 58° WNW 23:21:44 10° N
Cosmos 1726 Rocket 3.8 23:14:24 10° NNW 23:18:40 63° W 23:19:44 46° SSW
USA 245 4.4 23:19:45 27° NW 23:19:45 27° NW 23:21:02 10° NNW
Cosmos 2218 Rocket 4.1 23:16:21 10° N 23:22:26 59° E 23:24:05 45° SE
CARTOSAT-1 4.2 23:27:22 40° ENE 23:27:22 40° ENE 23:31:16 10° N
Landsat 7 3.7 23:31:20 66° ESE 23:31:46 71° ENE 23:36:31 10° N
Tiangong 2 3.1 23:30:09 10° WNW 23:32:54 26° N 23:33:11 26° N
Cosmos 839 Rocket 4.4 23:26:32 10° NNW 23:33:17 79° WSW 23:36:26 41° SSE
Cosmos 2058 Rocket 3.4 23:29:06 10° NNW 23:33:28 60° W 23:34:09 52° SW
SPOT 1/Viking Rocket 3.6 23:32:18 52° S 23:33:33 74° WSW 23:38:42 10° NNW
Cosmos 1452 Rocket 3.4 23:29:25 10° NNW 23:34:42 72° ENE 23:35:24 63° ESE
Cosmos 1980 Rocket 3.2 23:32:06 10° N 23:37:11 33° ENE 23:38:08 31° E
Meteor 1-21 4.4 23:39:12 50° ESE 23:39:25 50° E 23:44:57 10° NNE
ARGOS 4.0 23:40:02 31° SW 23:41:59 43° W 23:47:08 10° NNW
Terra 1.8 23:46:50 70° ENE 23:46:50 70° ENE 23:51:33 10° N
Nadezhda 3 Rocket 4.4 23:46:50 44° E 23:47:15 44° E 23:53:13 10° NNE
Cosmos 2322 Rocket 4.3 23:44:04 10° NNE 23:47:19 15° NE 23:48:59 14° ENE
SPOT 5 4.0 23:48:43 28° WSW 23:49:26 29° W 23:53:15 10° NW
H-2A R/B 2.2 23:52:19 71° NNE 23:52:19 71° NNE 23:56:31 10° N
IGS 5A 3.9 23:54:43 59° N 23:54:43 59° N 23:58:10 10° N
